Tracking 25709 objects as of 24-May-2022
HD Live streaming from Space Station
objects crossing your sky now

CARTOSAT-1

Track CARTOSAT-1 now!
10-day predictions
CARTOSAT-1 is classified as:


NORAD ID: 28649
Int'l Code: 2005-017A
Perigee: 623.2 km
Apogee: 623.9 km
Inclination: 97.7 °
Period: 97.0 minutes
Semi major axis: 6994 km
RCS: 4.7551 m2 (large)
Launch date: May 5, 2005
Source: India (IND)
Launch site: SRIHARIKOTA (SRI)

Remote sensing and mapping, land use, forest cover, river flow assessments.
aabbcc
Your satellite tracking list
Your tracking list is empty




NASA's NSSDC Master Catalog

Two Line Element Set (TLE):
1 28649U 05017A   22143.87898060  .00001394  00000-0  17321-3 0  9994
2 28649  97.7203 205.0654 0000510  23.6070 336.5168 14.84112182923115
Source of the keplerian elements: AFSPC